[[{"header":{"parameterUnit":"m.s-1","parameterCategory":2,"la1":30.2991,"la2":30.254,"lo1":-89.0895,"lo2":-89.0444,"dy":0.0017,"dx":0.0017,"nx":28,"ny":28,"refTime":"2025-02-24T09:00:00:Z","depth":"0","parameterNumber":2,"parameterNumberName":"U-component_of_CURRENTS"},"data":[0,0,0,0,0,0,0,0,0,0,0,0,0,0,0,0,0,0,0,0,0,0,0,0,0,0,0,0,0,0,0,0,0,0,0,0,0,0,0,0,0,0,0,0,0,0,0,0,0,0,0,0,0,0,0,0,0,0,0.3342,0.3342,0,0.333,0.3329,0.3329,0.329,0.3289,0.3288,0.3288,0.3236,0.3235,0.3235,0,0,0,0,0,0,0,0,0,0,0,0,0,0.3346,0.3346,0.3342,0.3342,0.3342,0.333,0.3329,0.3329,0.329,0.3289,0.3288,0.3288,0.3237,0.3236,0.3235,0,0,0,0,0,0,0,0,0,0,0,0,0,0.3337,0.3345,0.3342,0.3323,0.3322,0.333,0.3329,0.3329,0.329,0.3289,0.3288,0.3287,0.3237,0.3236,0.3235,0.3246,0,0,0.3231,0.323,0,0,0,0,0,0,0,0,0.3338,0.3337,0.3326,0.3325,0.3323,0.3312,0.3312,0.33,0.329,0.3299,0.3288,0.3287,0.326,0.3257,0.3254,0.3244,0.3242,0.3231,0.323,0.323,0.3229,0,0,0,0,0,0,0,0.3338,0.3337,0.3335,0.3326,0.3324,0.332,0.3317,0.3309,0.3283,0.3298,0.3296,0.3299,0.3259,0.3255,0.3252,0.3241,0.3231,0.323,0.3229,0.3229,0.3261,0.3262,0,0,0,0,0,0,0.3346,0.3338,0.3335,0.3334,0.3331,0.3321,0.3318,0.3315,0.3284,0.3279,0.33,0.3297,0.3258,0.3254,0.325,0.3278,0.323,0.3228,0.3228,0.3259,0.3261,0.3263,0,0,0,0,0,0,0.3346,0.3345,0.3336,0.3338,0.3337,0.3322,0.3319,0.3315,0.3315,0.3286,0.3279,0.3304,0.3257,0.3252,0.3253,0.3275,0.3228,0.3227,0.3257,0.326,0.3262,0.3323,0,0,0,0,0,0,0.3346,0.3345,0.3349,0.3339,0.3337,0.3349,0.332,0.3316,0.3319,0.3315,0.3287,0.3281,0.3256,0.3255,0.3252,0.3272,0.3226,0.3255,0.3259,0.3261,0.3319,0.3327,0.3334,0,0,0,0,0,0.3346,0.3354,0.3349,0.3349,0.3341,0.335,0.3349,0.3333,0.332,0.3327,0.331,0.3282,0.3272,0.3256,0.3251,0.3272,0.3254,0.3258,0.3261,0.3315,0.3325,0.3334,0,0,0,0,0,0,0.3356,0.3351,0.3345,0.3351,0.3355,0.3344,0.3352,0.3343,0.3335,0.3331,0.3298,0.3292,0.3304,0.3284,0.3267,0.3292,0.326,0.3263,0.3303,0.3312,0.332,0.3326,0.3225,0,0,0,0,0,0.3362,0.3367,0.3364,0.3371,0.3376,0.3367,0.337,0.3361,0.3353,0.3349,0.3329,0.3316,0.3317,0.331,0.3305,0.3315,0.3317,0.3329,0.3336,0.3342,0.3347,0.3382,0.3394,0.3274,0.3274,0.3274,0,0,0.3367,0.3367,0.3368,0.3374,0.3375,0.3387,0.3365,0.3376,0.3383,0.3346,0.3348,0.3343,0.3328,0.3341,0.3345,0.3324,0.3379,0.3347,0.3352,0.3354,0.3387,0.3399,0.3409,0.3277,0.3276,0.3276,0,0,0.3381,0.3382,0.3391,0.34,0.341,0.3409,0.3416,0.3412,0.3408,0.3418,0.3398,0.3409,0.3396,0.3395,0.3393,0.3442,0.3422,0.344,0.3475,0.351,0.352,0.3529,0.3549,0.3559,0.3438,0.3438,0.3438,0,0.3387,0.3392,0.3397,0.3412,0.3419,0.3422,0.3434,0.344,0.3435,0.3445,0.3426,0.3442,0.3425,0.3454,0.3466,0.3458,0.3469,0.3439,0.352,0.3528,0.3536,0.3555,0.3565,0.3441,0.3441,0.3441,0.344,0,0.3404,0.3413,0.3424,0.3439,0.3454,0.3467,0.3478,0.3493,0.3492,0.3498,0.3528,0.3515,0.3526,0.3527,0.3506,0.3557,0.3545,0.353,0.3495,0.3552,0.3568,0.3578,0.3446,0.3445,0.3444,0.3443,0,0,0.3394,0.3427,0.3428,0.3434,0.3466,0.3472,0.3508,0.3535,0.3561,0.357,0.3602,0.3611,0.3615,0.3613,0.3599,0.3621,0.3681,0.3598,0.3598,0.3615,0.3754,0.3714,0.372,0.3682,0.3684,0.3686,0.3744,0,0.3399,0.3422,0.3442,0.3463,0.3472,0.35,0.3529,0.3562,0.3592,0.3628,0.3644,0.3667,0.3646,0.3651,0.3678,0.3683,0.3709,0.3667,0.3699,0.37,0.3655,0.3731,0.3609,0.3649,0.3753,0.3755,0.3756,0,0.3395,0.3412,0.3429,0.3462,0.347,0.3488,0.354,0.3573,0.3645,0.3673,0.3723,0.3732,0.3775,0.374,0.3798,0.3773,0.3772,0.3771,0.3773,0.3719,0.3678,0.3609,0.3662,0.3544,0.377,0.3769,0.3768,0,0.3356,0.3394,0.3403,0.3414,0.3461,0.3478,0.3511,0.3583,0.3626,0.3708,0.3747,0.3804,0.3829,0.3854,0.386,0.3834,0.3917,0.388,0.3845,0.3841,0.3736,0.372,0.3674,0.3924,0.3924,0.3924,0.3924,0,0.3335,0.3338,0.3382,0.3384,0.3405,0.3452,0.3497,0.3551,0.3642,0.3691,0.3763,0.3808,0.386,0.3906,0.39,0.3916,0.3958,0.3871,0.3864,0.3754,0.3739,0.3628,0.3571,0.3926,0.3926,0.3925,0.3925,0,0.3278,0.3308,0.3318,0.3366,0.3381,0.3397,0.3481,0.3517,0.3619,0.3688,0.3712,0.3834,0.3899,0.3942,0.399,0.3964,0.3863,0.3965,0.3828,0.3804,0.3637,0.3588,0.3442,0.3341,0.3934,0.3933,0.3933,0,0.3246,0.3246,0.3291,0.3294,0.331,0.335,0.3374,0.3488,0.3535,0.3686,0.3705,0.3818,0.388,0.3971,0.3954,0.3965,0.3839,0.3841,0.3764,0.3629,0.357,0.3437,0.3353,0.365,0.3647,0.3645,0.3643,0,0.3186,0.3203,0.3213,0.3224,0.3239,0.3268,0.3316,0.3355,0.3477,0.3545,0.3644,0.372,0.3838,0.3823,0.3862,0.3843,0.365,0.3794,0.3691,0.3382,0.3197,0.3096,0.3605,0.3623,0.3625,0.3627,0.3628,0.3629,0.3134,0.3124,0.3136,0.3131,0.3148,0.3153,0.3139,0.3207,0.3267,0.333,0.35,0.3552,0.3651,0.3704,0.3674,0.3528,0.3508,0.3404,0.337,0.3258,0.3108,0.3575,0.3561,0.3562,0.3564,0.3565,0.3566,0,0.3047,0.3039,0.3038,0.3018,0.2982,0.3038,0.3059,0.3023,0.3022,0.3152,0.3231,0.3292,0.3302,0.3344,0.3279,0.3132,0.2992,0.3017,0.2796,0.2746,0.32,0.3135,0.2982,0.2982,0.2982,0.2982,0.2982,0.2982,0.3001,0.2953,0.2943,0.2846,0.2829,0.2743,0.2725,0.2706,0.2756,0.2765,0.2791,0.2893,0.3026,0.3017,0.2872,0.2799,0.2563,0.2442,0.2421,0.274,0.2773,0.2803,0.2729,0.2493,0.2492,0.1869,0.1864,0.186]},{"header":{"parameterUnit":"m.s-1","parameterCategory":2,"la1":30.2991,"la2":30.254,"lo1":-89.0895,"lo2":-89.0444,"dy":0.0017,"dx":0.0017,"nx":28,"ny":28,"refTime":"2025-02-24T09:00:00:Z","depth":"0","parameterNumber":3,"parameterNumberName":"V-component_of_CURRENTS"},"data":[0,0,0,0,0,0,0,0,0,0,0,0,0,0,0,0,0,0,0,0,0,0,0,0,0,0,0,0,0,0,0,0,0,0,0,0,0,0,0,0,0,0,0,0,0,0,0,0,0,0,0,0,0,0,0,0,0,0,0.0132,0.0132,0,0.0102,0.0102,0.0101,0.008,0.008,0.008,0.008,0.0031,0.003,0.0029,0,0,0,0,0,0,0,0,0,0,0,0,0,0.0112,0.0113,0.0132,0.0132,0.0132,0.0102,0.0102,0.0101,0.008,0.008,0.008,0.008,0.0032,0.003,0.0029,0,0,0,0,0,0,0,0,0,0,0,0,0,0.0104,0.0113,0.0132,0.0119,0.0117,0.0102,0.0102,0.0101,0.008,0.008,0.008,0.008,0.0032,0.0031,0.0029,0.0018,0,0,0.0023,0.0022,0,0,0,0,0,0,0,0,0.0105,0.0105,0.0121,0.0119,0.0118,0.0096,0.0077,0.0073,0.008,0.0093,0.008,0.008,0.0052,0.0049,0.0041,0.0016,0.0014,0.0023,0.0022,0.0021,0.002,0,0,0,0,0,0,0,0.0105,0.0106,0.0119,0.0121,0.0119,0.0094,0.0093,0.0076,0.0072,0.0091,0.009,0.0089,0.0051,0.0043,0.004,0.0013,0.0023,0.0021,0.002,0.0019,-0.0018,-0.0018,0,0,0,0,0,0,0.0115,0.0107,0.012,0.0118,0.0113,0.0095,0.0094,0.0102,0.0072,0.0068,0.0089,0.0088,0.0047,0.0042,0.0038,0.0043,0.0021,0.0019,0.0018,-0.0019,-0.0018,-0.0018,0,0,0,0,0,0,0.0115,0.0117,0.0121,0.0112,0.0111,0.0096,0.0105,0.0101,0.0097,0.0071,0.0066,0.0089,0.0046,0.0041,0.003,0.004,0.0018,0.0016,-0.0019,-0.0018,-0.0018,0.0039,0,0,0,0,0,0,0.0115,0.0118,0.0123,0.0113,0.0112,0.0122,0.0105,0.0101,0.0097,0.0096,0.0069,0.0065,0.0046,0.0033,0.0029,0.0037,0.0015,-0.0019,-0.0019,-0.0018,0.0037,0.0041,0.0045,0,0,0,0,0,0.0114,0.0128,0.0123,0.0124,0.0121,0.0123,0.012,0.0107,0.0098,0.0101,0.0083,0.0066,0.0031,0.0032,0.0026,0.0034,-0.0019,-0.0019,-0.0018,0.0035,0.004,0.0045,0,0,0,0,0,0,0.0118,0.0126,0.0122,0.0135,0.0132,0.012,0.0121,0.0111,0.0099,0.0095,0.0069,0.0063,0.0055,0.0036,0.0037,0.0023,0.0002,0.0002,0.0045,0.005,0.0054,0.0076,0.0013,0,0,0,0,0,0.0123,0.0137,0.0135,0.0145,0.0147,0.0133,0.013,0.0123,0.0112,0.0107,0.0089,0.0067,0.0051,0.0044,0.0025,0.002,-0.0002,0.0019,0.0023,0.0027,0.004,0.0012,0.0015,-0.0017,-0.0017,-0.0017,0,0,0.0126,0.0132,0.0139,0.0147,0.0142,0.0157,0.0132,0.0134,0.0144,0.0103,0.0107,0.0079,0.0051,0.0046,0.0041,0.0033,0.0024,0.0027,0.0031,0.0042,0.0013,0.0016,0.0019,-0.0017,-0.0017,-0.0017,0,0,0.0148,0.0147,0.017,0.0173,0.0175,0.0171,0.0175,0.0167,0.016,0.0157,0.0131,0.0113,0.0088,0.0074,0.0063,0.0076,0.0043,0.0064,0.0106,0.0079,0.0082,0.0084,0.006,0.0059,0.0069,0.0069,0.0069,0,0.0151,0.0183,0.0174,0.0197,0.0208,0.0184,0.0211,0.0201,0.0189,0.0192,0.0167,0.0134,0.0104,0.0106,0.0107,0.0086,0.0065,0.0093,0.0086,0.0087,0.0089,0.0063,0.0062,0.0072,0.0072,0.0071,0.0071,0,0.0196,0.0217,0.023,0.0258,0.0265,0.0282,0.0275,0.0273,0.0258,0.0251,0.0242,0.0196,0.0182,0.0162,0.0138,0.0136,0.0116,0.0092,0.0078,0.0096,0.0067,0.0065,0.0076,0.0075,0.0074,0.0073,0,0,0.0219,0.0257,0.0262,0.029,0.0301,0.0318,0.0328,0.0343,0.0368,0.0327,0.0349,0.03,0.0274,0.0258,0.0219,0.0191,0.0171,0.0151,0.0148,0.0134,0.0113,0.0106,0.0102,0.0145,0.0145,0.0145,0.0089,0,0.026,0.0323,0.0326,0.0384,0.0419,0.0403,0.0424,0.0428,0.0424,0.0435,0.0377,0.0378,0.0312,0.0305,0.0266,0.0202,0.0168,0.0189,0.0091,0.0089,0.0087,0.0101,0.0137,0.0091,0.0087,0.0086,0.0086,0,0.031,0.0349,0.0414,0.0466,0.048,0.0503,0.0544,0.0563,0.0562,0.0556,0.0536,0.0491,0.0448,0.0383,0.028,0.0296,0.0212,0.0151,0.0146,0.0122,0.0078,0.0072,0.0087,-0.0024,0.0082,0.0082,0.0083,0,0.0352,0.0412,0.0471,0.0488,0.0536,0.0556,0.0581,0.06,0.0643,0.0639,0.0658,0.0592,0.0571,0.0454,0.0317,0.0299,0.0201,0.0158,0.007,0.0068,0.0073,0.0072,-0.0021,0.0081,0.0081,0.0081,0.0081,0,0.0406,0.0452,0.0495,0.0529,0.0606,0.0614,0.0696,0.0706,0.0746,0.0813,0.0729,0.076,0.0588,0.0505,0.0358,0.0218,0.0228,0.0087,0.0057,0.0093,0.0094,-0.0024,-0.0115,0.0079,0.0079,0.008,0.008,0,0.0447,0.0472,0.0549,0.0607,0.0631,0.0688,0.078,0.0844,0.0859,0.0938,0.0938,0.0894,0.0795,0.0611,0.0437,0.0293,0.0076,0.0085,0.014,0.0118,-0.0068,-0.0157,-0.0292,-0.0342,-0.0016,-0.0016,-0.0017,0,0.0476,0.0519,0.0609,0.0665,0.0694,0.078,0.0848,0.0899,0.0981,0.1032,0.1082,0.1009,0.0997,0.0739,0.0474,0.0224,0.0078,0.0074,0.0041,-0.0063,-0.0185,-0.0239,-0.0276,0.0064,0.0064,0.0064,0.0064,0,0.0536,0.0563,0.0626,0.074,0.0821,0.0927,0.1026,0.111,0.1175,0.1248,0.1336,0.1329,0.1089,0.0881,0.0522,0.0332,0.0003,0.0071,-0.005,-0.0137,-0.0188,-0.0255,0.0081,0.0067,0.0066,0.0066,0.0066,0.0066,0.0578,0.0634,0.0715,0.0826,0.0926,0.1057,0.116,0.1283,0.1428,0.1556,0.154,0.1583,0.1248,0.0788,0.051,0.0045,0.0015,-0.0089,-0.019,-0.0235,-0.0278,0.0066,0.0025,0.0025,0.0024,0.0024,0.0024,0,0.0633,0.0696,0.0799,0.0931,0.1051,0.1094,0.1271,0.139,0.1578,0.1714,0.1807,0.1694,0.1281,0.0823,0.0182,-0.0142,-0.0261,-0.0327,-0.0395,-0.0422,-0.0119,-0.0107,-0.0159,-0.0159,-0.0159,-0.0159,-0.0159,-0.0159,0.0662,0.0761,0.0814,0.1009,0.111,0.1275,0.1383,0.1568,0.1716,0.1913,0.1977,0.1989,0.1628,0.051,-0.022,-0.0394,-0.0609,-0.067,-0.0788,-0.0582,-0.0566,-0.0552,-0.0559,-0.0706,-0.0707,-0.1009,-0.1013,-0.1015]}],[{"header":{"parameterUnit":"m.s-1","parameterCategory":2,"la1":30.2991,"la2":30.254,"lo1":-89.0895,"lo2":-89.0444,"dy":0.0017,"dx":0.0017,"nx":28,"ny":28,"refTime":"2025-02-24T09:00:00:Z","depth":"2","parameterNumber":2,"parameterNumberName":"U-component_of_CURRENTS"},"data":[0,0,0,0,0,0,0,0,0,0,0,0,0,0,0,0,0,0,0,0,0,0,0,0,0,0,0,0,0,0,0,0,0,0,0,0,0,0,0,0,0,0,0,0,0,0,0,0,0,0,0,0,0,0,0,0,0,0,0.2714,0.2714,0,0.2722,0.2721,0.2721,0.2709,0.2708,0.2708,0.2708,0.2691,0.2691,0.269,0,0,0,0,0,0,0,0,0,0,0,0,0,0.2704,0.2704,0.2714,0.2714,0.2715,0.2722,0.2721,0.2721,0.2709,0.2708,0.2708,0.2708,0.2691,0.2691,0.269,0,0,0,0,0,0,0,0,0,0,0,0,0,0.2707,0.2704,0.2714,0.2711,0.2711,0.2722,0.2721,0.2721,0.2709,0.2708,0.2708,0.2708,0.2691,0.2691,0.269,0.2695,0,0,0.2689,0.2689,0,0,0,0,0,0,0,0,0.2707,0.2707,0.2711,0.2711,0.2711,0.2716,0.2712,0.2712,0.2709,0.2707,0.2708,0.2707,0.2698,0.2698,0.2697,0.2694,0.2694,0.2689,0.2689,0.2689,0.2689,0,0,0,0,0,0,0,0.2707,0.2707,0.2715,0.2711,0.2711,0.2714,0.2714,0.2712,0.2703,0.2707,0.2707,0.2711,0.2698,0.2697,0.2696,0.2693,0.2689,0.2689,0.2689,0.2688,0.2741,0.2742,0,0,0,0,0,0,0.271,0.2707,0.2715,0.2715,0.2711,0.2715,0.2714,0.2713,0.2703,0.2702,0.2712,0.2711,0.2698,0.2697,0.2696,0.2738,0.2689,0.2688,0.2688,0.2739,0.2741,0.2743,0,0,0,0,0,0,0.271,0.271,0.2714,0.2713,0.2714,0.2715,0.2714,0.2713,0.2724,0.2707,0.2705,0.2724,0.2698,0.2696,0.271,0.2735,0.2688,0.2688,0.2737,0.274,0.2742,0.2798,0,0,0,0,0,0,0.2709,0.271,0.2716,0.2713,0.2715,0.273,0.2714,0.2714,0.2727,0.2726,0.2717,0.2714,0.2697,0.271,0.2709,0.2734,0.2688,0.2735,0.2739,0.2741,0.2794,0.2802,0.2808,0,0,0,0,0,0.2709,0.2715,0.2716,0.2717,0.272,0.273,0.2731,0.2729,0.2729,0.2737,0.2736,0.2715,0.2729,0.2711,0.271,0.2735,0.2734,0.2738,0.2741,0.2791,0.28,0.2808,0,0,0,0,0,0,0.2711,0.2715,0.2715,0.2722,0.2731,0.2729,0.274,0.2741,0.2747,0.2749,0.2731,0.2729,0.2753,0.274,0.2721,0.2761,0.273,0.2734,0.2769,0.2777,0.2785,0.279,0.2687,0,0,0,0,0,0.2716,0.2723,0.2728,0.2735,0.2742,0.2746,0.2753,0.2754,0.2757,0.276,0.2754,0.2755,0.2766,0.2767,0.2771,0.2788,0.279,0.2806,0.2814,0.282,0.2825,0.2862,0.2873,0.2755,0.2755,0.2755,0,0,0.2719,0.2723,0.2726,0.2737,0.2744,0.2759,0.2749,0.2766,0.278,0.2757,0.2777,0.2781,0.2778,0.2801,0.2811,0.2792,0.2856,0.2824,0.2829,0.2831,0.2867,0.2879,0.2889,0.2757,0.2757,0.2756,0,0,0.2727,0.2734,0.2743,0.2755,0.2773,0.2779,0.2789,0.2798,0.2806,0.2827,0.2821,0.2843,0.2848,0.2855,0.2859,0.291,0.2896,0.2914,0.2949,0.2986,0.2996,0.3004,0.3023,0.3033,0.2913,0.2913,0.2913,0,0.2733,0.2739,0.2749,0.2764,0.2776,0.2792,0.2807,0.2822,0.2835,0.2852,0.2842,0.2883,0.2876,0.2915,0.2931,0.2926,0.2939,0.2913,0.2995,0.3004,0.3012,0.3029,0.3039,0.2916,0.2916,0.2916,0.2915,0,0.2743,0.2756,0.2766,0.2789,0.2806,0.2824,0.2846,0.2871,0.2886,0.2903,0.2949,0.295,0.2976,0.2981,0.2968,0.3027,0.3016,0.3003,0.297,0.3027,0.3042,0.3051,0.2921,0.292,0.2919,0.2918,0,0,0.2729,0.2765,0.2769,0.278,0.282,0.283,0.2875,0.2913,0.295,0.2975,0.3019,0.3045,0.3059,0.3065,0.3062,0.3087,0.315,0.307,0.3071,0.3085,0.3226,0.3167,0.3172,0.3155,0.3157,0.3158,0.3214,0,0.2733,0.2756,0.2779,0.2808,0.282,0.2859,0.2896,0.294,0.2982,0.3033,0.3063,0.3104,0.3088,0.3107,0.3137,0.315,0.3178,0.3135,0.3173,0.3174,0.3111,0.3182,0.2926,0.2949,0.3223,0.3224,0.3225,0,0.2727,0.2745,0.2768,0.2811,0.2822,0.2849,0.2916,0.2956,0.3042,0.3081,0.3144,0.3168,0.3223,0.3194,0.326,0.3237,0.324,0.3242,0.3244,0.3175,0.3133,0.2938,0.2956,0.3241,0.324,0.3239,0.3238,0,0.269,0.2733,0.2748,0.2762,0.282,0.2846,0.2887,0.2971,0.302,0.3121,0.3169,0.3241,0.328,0.3309,0.3323,0.3301,0.3384,0.3351,0.3301,0.3296,0.3077,0.305,0.3398,0.3398,0.3397,0.3397,0.3397,0,0.267,0.2681,0.2732,0.2738,0.2772,0.2825,0.2884,0.2947,0.3048,0.3107,0.3192,0.3246,0.3313,0.3363,0.3361,0.3371,0.3422,0.3324,0.3316,0.309,0.3064,0.3311,0.33,0.3399,0.3399,0.3398,0.3398,0,0.2618,0.2652,0.2671,0.2731,0.2752,0.2778,0.2874,0.2916,0.3029,0.3111,0.3146,0.3275,0.3344,0.3393,0.3447,0.3414,0.3425,0.3409,0.3135,0.3095,0.3299,0.3291,0.3362,0.336,0.3359,0.3358,0.3357,0,0.2589,0.2594,0.2651,0.2662,0.2687,0.274,0.2774,0.2894,0.2944,0.311,0.3135,0.3256,0.3311,0.3392,0.3359,0.3362,0.3419,0.3116,0.3025,0.3315,0.3301,0.3294,0.3288,0.2753,0.2748,0.2743,0.2739,0,0.2537,0.256,0.2577,0.2601,0.2629,0.2663,0.2724,0.2763,0.2895,0.2967,0.3063,0.313,0.3226,0.3126,0.3153,0.3113,0.3097,0.3022,0.3406,0.281,0.2748,0.2732,0.2744,0.2697,0.2702,0.2705,0.2707,0.2709,0.2495,0.249,0.2512,0.2523,0.2551,0.2558,0.2549,0.262,0.2677,0.2745,0.2893,0.2899,0.2944,0.2857,0.2769,0.2694,0.2905,0.2759,0.277,0.2787,0.2715,0.2656,0.2573,0.2576,0.2579,0.2582,0.2584,0,0.2422,0.2421,0.2428,0.2423,0.2398,0.2458,0.2481,0.2443,0.2441,0.2544,0.2601,0.2414,0.2371,0.2406,0.223,0.2234,0.2182,0.2139,0.2039,0.2085,0.2124,0.2013,0.1687,0.1684,0.1681,0.1678,0,0,0.2383,0.2346,0.2338,0.2262,0.226,0.2186,0.2171,0.2143,0.2168,0.2134,0.2115,0.2296,0.2364,0.1998,0.1955,0.1788,0.1919,0.1719,0.2448,0.2378,0.2413,0.2502,0.2386,0,0,0,0,0]},{"header":{"parameterUnit":"m.s-1","parameterCategory":2,"la1":30.2991,"la2":30.254,"lo1":-89.0895,"lo2":-89.0444,"dy":0.0017,"dx":0.0017,"nx":28,"ny":28,"refTime":"2025-02-24T09:00:00:Z","depth":"2","parameterNumber":3,"parameterNumberName":"V-component_of_CURRENTS"},"data":[0,0,0,0,0,0,0,0,0,0,0,0,0,0,0,0,0,0,0,0,0,0,0,0,0,0,0,0,0,0,0,0,0,0,0,0,0,0,0,0,0,0,0,0,0,0,0,0,0,0,0,0,0,0,0,0,0,0,0.0285,0.0285,0,0.0256,0.0255,0.0255,0.0232,0.0232,0.0232,0.0232,0.019,0.0189,0.0188,0,0,0,0,0,0,0,0,0,0,0,0,0,0.0261,0.0262,0.0285,0.0285,0.0284,0.0256,0.0255,0.0255,0.0232,0.0232,0.0232,0.0232,0.0191,0.0189,0.0188,0,0,0,0,0,0,0,0,0,0,0,0,0,0.0255,0.0262,0.0285,0.027,0.0269,0.0256,0.0255,0.0255,0.0232,0.0232,0.0232,0.0232,0.0191,0.0189,0.0188,0.0183,0,0,0.0184,0.0183,0,0,0,0,0,0,0,0,0.0255,0.0256,0.0273,0.0271,0.0269,0.0248,0.0232,0.023,0.0232,0.0245,0.0232,0.0232,0.0209,0.0206,0.02,0.0181,0.0179,0.0183,0.0183,0.0182,0.0181,0,0,0,0,0,0,0,0.0256,0.0256,0.0272,0.0272,0.027,0.0245,0.0244,0.0231,0.0228,0.0244,0.0242,0.0241,0.0208,0.0202,0.0199,0.0179,0.0183,0.0182,0.0181,0.0181,0.0154,0.0154,0,0,0,0,0,0,0.0265,0.0257,0.0273,0.0272,0.0263,0.0246,0.0245,0.0254,0.0228,0.0224,0.0241,0.024,0.0204,0.0201,0.0197,0.0204,0.0182,0.0181,0.018,0.0153,0.0154,0.0154,0,0,0,0,0,0,0.0265,0.0267,0.0274,0.0264,0.0263,0.0247,0.0257,0.0254,0.0251,0.0226,0.0222,0.0242,0.0204,0.0199,0.0193,0.0201,0.018,0.0179,0.0153,0.0153,0.0154,0.0207,0,0,0,0,0,0,0.0264,0.0268,0.0274,0.0265,0.0264,0.0277,0.0258,0.0254,0.025,0.0248,0.0225,0.0221,0.0203,0.0195,0.0191,0.0199,0.0177,0.0153,0.0153,0.0154,0.0205,0.0209,0.0213,0,0,0,0,0,0.0264,0.0281,0.0275,0.0277,0.0276,0.0277,0.0275,0.0261,0.025,0.0255,0.0238,0.0222,0.0194,0.0194,0.019,0.0197,0.0153,0.0153,0.0154,0.0204,0.0208,0.0213,0,0,0,0,0,0,0.0272,0.028,0.0273,0.0291,0.0287,0.0274,0.0275,0.0265,0.0255,0.0251,0.0227,0.0222,0.0217,0.0199,0.02,0.0189,0.0169,0.0169,0.0209,0.0213,0.0217,0.0234,0.0176,0,0,0,0,0,0.0278,0.0294,0.0291,0.0303,0.0304,0.0289,0.0286,0.0278,0.0268,0.0263,0.0247,0.0227,0.0214,0.0209,0.0192,0.019,0.0165,0.0189,0.0193,0.0196,0.0207,0.0174,0.0176,0.0155,0.0155,0.0155,0,0,0.0284,0.029,0.0297,0.0306,0.03,0.0313,0.0287,0.0289,0.0298,0.0261,0.0265,0.024,0.0215,0.0212,0.0208,0.02,0.0188,0.0197,0.02,0.0208,0.0175,0.0177,0.0178,0.0155,0.0155,0.0155,0,0,0.0308,0.031,0.0332,0.0335,0.0334,0.0328,0.0333,0.0323,0.0316,0.0315,0.0289,0.0273,0.0253,0.0238,0.0228,0.0242,0.0208,0.0233,0.027,0.0238,0.024,0.0241,0.021,0.0208,0.0237,0.0237,0.0237,0,0.0314,0.0346,0.0336,0.0358,0.0367,0.0341,0.0367,0.0357,0.0345,0.0345,0.0324,0.0293,0.0267,0.0267,0.0269,0.0252,0.0228,0.0257,0.0244,0.0244,0.0245,0.0213,0.021,0.024,0.024,0.0239,0.0239,0,0.0358,0.038,0.0393,0.0417,0.0423,0.0439,0.043,0.0426,0.041,0.0402,0.0391,0.035,0.0335,0.0318,0.0298,0.0292,0.0271,0.0251,0.0236,0.025,0.0215,0.0212,0.0244,0.0243,0.0242,0.0241,0,0,0.0383,0.042,0.0424,0.0449,0.0458,0.0472,0.048,0.049,0.0508,0.047,0.0483,0.0442,0.0416,0.0402,0.0367,0.0336,0.031,0.03,0.0297,0.0276,0.024,0.0224,0.0218,0.0286,0.0286,0.0285,0.0214,0,0.0422,0.0481,0.0485,0.0537,0.0569,0.0552,0.057,0.0569,0.056,0.0562,0.0507,0.0505,0.045,0.0443,0.0403,0.0338,0.0302,0.0331,0.0224,0.0221,0.021,0.0214,0.0231,0.017,0.021,0.0209,0.0209,0,0.0469,0.0505,0.0566,0.0612,0.0624,0.0645,0.0674,0.069,0.0678,0.067,0.0645,0.0603,0.0557,0.0502,0.0395,0.0416,0.0336,0.0274,0.027,0.0237,0.0198,0.0161,0.0161,0.0202,0.0203,0.0203,0.0204,0,0.0506,0.0563,0.0617,0.0633,0.0675,0.0693,0.0714,0.0722,0.0756,0.0742,0.0754,0.0686,0.0659,0.0548,0.0416,0.0406,0.0289,0.0259,0.0167,0.0164,0.015,0.0147,0.0178,0.0179,0.0179,0.0179,0.0179,0,0.0555,0.0598,0.0639,0.0671,0.0738,0.0745,0.0814,0.0818,0.0844,0.0895,0.0817,0.0831,0.0669,0.0579,0.0444,0.0299,0.0308,0.0177,0.0147,0.0168,0.0168,0.0173,0.0173,0.0176,0.0177,0.0177,0.0178,0,0.0591,0.0616,0.0685,0.0739,0.076,0.081,0.0889,0.0942,0.0949,0.1005,0.1004,0.0943,0.0832,0.0658,0.0482,0.0352,0.0204,0.0146,0.0182,0.0158,0.0091,0.0094,0.004,0.0039,0.0038,0.0037,0.0036,0,0.0617,0.0656,0.0738,0.0787,0.0814,0.0891,0.095,0.0992,0.1059,0.1082,0.1116,0.1026,0.0985,0.0719,0.0474,0.0236,0.0202,0.0089,0.0071,0.0101,0.0077,0.0082,0.0087,0.0067,0.0067,0.0066,0.0066,0,0.0668,0.0692,0.075,0.0851,0.0923,0.1019,0.1105,0.1173,0.1223,0.1268,0.1308,0.1274,0.1022,0.0793,0.046,0.0295,0.0127,0.0076,0.0097,0.0105,0.0123,0.0101,0.0105,0.0064,0.0064,0.0064,0.0064,0.0064,0.0702,0.0751,0.0824,0.0921,0.1011,0.1127,0.1215,0.1311,0.142,0.1487,0.1452,0.1401,0.1129,0.0714,0.0423,0.0111,0.0128,0.0014,0.0016,0.0019,0.004,0.0056,-0.0012,-0.0012,-0.0012,-0.0013,-0.0013,0,0.0746,0.0801,0.0891,0.1008,0.1113,0.1156,0.1306,0.1396,0.1527,0.1578,0.1607,0.1346,0.1081,0.0757,0.03,0.0036,0.0013,-0.0057,-0.0024,-0.002,-0.0016,0.0005,-0.0058,-0.0059,-0.006,-0.0061,0,0,0.0769,0.0853,0.0898,0.1066,0.1156,0.1301,0.1392,0.152,0.1595,0.1654,0.1624,0.1564,0.1175,0.084,0.0472,0.0206,0.0154,0.015,0.0215,0.0302,0.0308,0.0052,0.0092,0,0,0,0,0]}],[{"header":{"parameterUnit":"m.s-1","parameterCategory":2,"la1":30.2991,"la2":30.254,"lo1":-89.0895,"lo2":-89.0444,"dy":0.0017,"dx":0.0017,"nx":28,"ny":28,"refTime":"2025-02-24T09:00:00:Z","depth":"4","parameterNumber":2,"parameterNumberName":"U-component_of_CURRENTS"},"data":[0,0,0,0,0,0,0,0,0,0,0,0,0,0,0,0,0,0,0,0,0,0,0,0,0,0,0,0,0,0,0,0,0,0,0,0,0,0,0,0,0,0,0,0,0,0,0,0,0,0,0,0,0,0,0,0,0,0,0.1753,0.1754,0,0.1808,0.1809,0.1809,0.1859,0.186,0.1861,0.1862,0.1926,0.1927,0.1928,0,0,0,0,0,0,0,0,0,0,0,0,0,0.1695,0.1696,0.1753,0.1754,0.1755,0.1808,0.1809,0.181,0.1859,0.186,0.1861,0.1862,0.1925,0.1927,0.1928,0,0,0,0,0,0,0,0,0,0,0,0,0,0.173,0.1696,0.1753,0.1787,0.1791,0.1808,0.1809,0.181,0.1859,0.186,0.1861,0.1862,0.1925,0.1926,0.1928,0.1915,0,0,0.1933,0.1933,0,0,0,0,0,0,0,0,0.1728,0.1732,0.1782,0.1785,0.1789,0.183,0.1812,0.1846,0.1859,0.1831,0.1862,0.1863,0.1895,0.1899,0.1904,0.1918,0.192,0.1933,0.1934,0.1934,0.1935,0,0,0,0,0,0,0,0.1726,0.173,0.1773,0.1782,0.1787,0.1802,0.1808,0.1819,0.1855,0.1834,0.1838,0.1847,0.1897,0.1902,0.1906,0.1921,0.1933,0.1934,0.1935,0.1936,0.2043,0.2045,0,0,0,0,0,0,0.1721,0.1728,0.1772,0.1775,0.1763,0.1802,0.1809,0.1814,0.1855,0.1862,0.1846,0.1849,0.1899,0.1904,0.1908,0.1996,0.1934,0.1936,0.1937,0.2041,0.2043,0.2045,0,0,0,0,0,0,0.1719,0.1724,0.1769,0.1754,0.1761,0.1802,0.1808,0.1815,0.1859,0.1864,0.1872,0.1888,0.19,0.1906,0.1956,0.1995,0.1936,0.1938,0.2039,0.2042,0.2044,0.2106,0,0,0,0,0,0,0.1717,0.1723,0.1745,0.1754,0.1762,0.1802,0.1807,0.1815,0.1861,0.1867,0.1901,0.1906,0.1902,0.1954,0.1957,0.1996,0.1939,0.2036,0.204,0.2043,0.2102,0.2111,0.2119,0,0,0,0,0,0.1715,0.1731,0.1745,0.1752,0.1784,0.1803,0.1809,0.184,0.1862,0.1884,0.1916,0.1907,0.198,0.1956,0.196,0.2,0.2034,0.2039,0.2043,0.2098,0.2109,0.2118,0,0,0,0,0,0,0.1718,0.1738,0.1754,0.1777,0.1801,0.1813,0.1843,0.1861,0.1903,0.1923,0.1928,0.1935,0.1994,0.199,0.1964,0.2044,0.2007,0.2013,0.2048,0.2058,0.2067,0.2067,0.194,0,0,0,0,0,0.1728,0.1749,0.1767,0.1791,0.1807,0.1833,0.1854,0.1875,0.1903,0.1924,0.1949,0.1979,0.2007,0.2028,0.2048,0.2088,0.2087,0.2119,0.2127,0.2134,0.2139,0.2177,0.2189,0.206,0.206,0.206,0,0,0.1737,0.1752,0.1767,0.1795,0.1819,0.1845,0.185,0.1891,0.1923,0.1923,0.1989,0.2012,0.2026,0.2074,0.21,0.2081,0.2171,0.214,0.2146,0.2147,0.2183,0.2195,0.2206,0.2063,0.2062,0.2062,0,0,0.1752,0.1782,0.1802,0.1825,0.1866,0.1881,0.1902,0.1937,0.197,0.2023,0.2038,0.2087,0.2128,0.2146,0.2158,0.2226,0.2216,0.2241,0.2284,0.2321,0.2332,0.2341,0.2355,0.2365,0.2244,0.2244,0.2244,0,0.1768,0.1789,0.1813,0.1837,0.1863,0.1902,0.193,0.1964,0.2015,0.2048,0.2058,0.2146,0.2159,0.2216,0.2243,0.2245,0.2259,0.2241,0.2331,0.234,0.2349,0.2361,0.2371,0.2248,0.2247,0.2247,0.2246,0,0.1782,0.1818,0.1835,0.1878,0.1909,0.1943,0.1984,0.2035,0.2083,0.2115,0.2199,0.2225,0.2277,0.2293,0.2289,0.2362,0.235,0.2337,0.2301,0.2365,0.2374,0.2383,0.2253,0.2251,0.225,0.2249,0,0,0.1769,0.1833,0.1844,0.1872,0.1936,0.1957,0.2026,0.2086,0.2143,0.2206,0.2275,0.2333,0.2364,0.2381,0.2393,0.2424,0.2493,0.2414,0.2414,0.242,0.2571,0.2402,0.2395,0.2503,0.2505,0.2507,0.2551,0,0.1778,0.1823,0.1858,0.1917,0.1942,0.2004,0.2061,0.2128,0.2194,0.2272,0.2325,0.2396,0.2393,0.2434,0.2469,0.2493,0.2523,0.2482,0.2513,0.2514,0.235,0.2402,0.2514,0.2558,0.256,0.2562,0.2563,0,0.1772,0.1806,0.186,0.1935,0.1956,0.2005,0.2107,0.2164,0.2276,0.2333,0.2419,0.2462,0.254,0.2521,0.2598,0.2578,0.2584,0.2589,0.2591,0.2416,0.2362,0.2482,0.258,0.2578,0.2577,0.2576,0.2575,0,0.1727,0.1804,0.1849,0.1874,0.1967,0.202,0.2084,0.2193,0.2256,0.2386,0.2447,0.2539,0.26,0.2635,0.2658,0.2644,0.2721,0.2695,0.2546,0.2534,0.2645,0.2635,0.2742,0.2742,0.2742,0.2742,0.2742,0,0.1698,0.1739,0.184,0.1862,0.1934,0.201,0.2103,0.2184,0.2306,0.2374,0.2484,0.2537,0.2636,0.2686,0.269,0.2644,0.2752,0.2557,0.2537,0.267,0.2662,0.2651,0.264,0.2744,0.2743,0.2743,0.2743,0,0.1634,0.1701,0.1759,0.1871,0.1913,0.1969,0.2108,0.2164,0.2298,0.2391,0.2438,0.2569,0.2625,0.2687,0.2743,0.2664,0.2648,0.2603,0.2744,0.2731,0.2427,0.2419,0.2432,0.2427,0.2422,0.2418,0.2415,0,0.1599,0.1624,0.1752,0.1791,0.185,0.1947,0.2006,0.215,0.2203,0.2377,0.2398,0.2517,0.2578,0.2521,0.2602,0.2594,0.2562,0.2532,0.247,0.2418,0.2398,0.2397,0.2395,0.2407,0.2406,0.2405,0.2404,0,0.1532,0.1599,0.1648,0.1728,0.18,0.1863,0.1958,0.1984,0.2132,0.2273,0.2298,0.2323,0.2379,0.2409,0.2424,0.2414,0.2539,0.2482,0.2491,0.2433,0.2388,0.2372,0.2376,0.2387,0.239,0.2391,0.2392,0,0.1492,0.1509,0.1586,0.1641,0.1723,0.1742,0.181,0.1857,0.1927,0.2106,0.2108,0.2229,0.2351,0.2316,0.233,0.2309,0.2266,0.2178,0.2202,0.2221,0.213,0.204,0.1918,0,0,0,0,0,0.1437,0.1439,0.1485,0.1529,0.1602,0.1649,0.1754,0.182,0.196,0.1921,0.2008,0.2044,0.2063,0.2129,0.2063,0.2239,0.228,0.2151,0.2193,0.2297,0.2316,0.2227,0,0,0,0,0,0,0.1397,0.1438,0.1444,0.1421,0.143,0.149,0.1552,0.1648,0.1632,0.1782,0.1804,0.1916,0.1969,0.2078,0.2023,0.2042,0.2023,0.2231,0.2225,0.2286,0.2304,0.2319,0.2234,0,0,0,0,0]},{"header":{"parameterUnit":"m.s-1","parameterCategory":2,"la1":30.2991,"la2":30.254,"lo1":-89.0895,"lo2":-89.0444,"dy":0.0017,"dx":0.0017,"nx":28,"ny":28,"refTime":"2025-02-24T09:00:00:Z","depth":"4","parameterNumber":3,"parameterNumberName":"V-component_of_CURRENTS"},"data":[0,0,0,0,0,0,0,0,0,0,0,0,0,0,0,0,0,0,0,0,0,0,0,0,0,0,0,0,0,0,0,0,0,0,0,0,0,0,0,0,0,0,0,0,0,0,0,0,0,0,0,0,0,0,0,0,0,0,0.0246,0.0246,0,0.0231,0.0231,0.0231,0.022,0.022,0.022,0.022,0.0197,0.0197,0.0196,0,0,0,0,0,0,0,0,0,0,0,0,0,0.0222,0.0223,0.0246,0.0246,0.0246,0.0232,0.0231,0.0231,0.022,0.022,0.022,0.022,0.0197,0.0197,0.0196,0,0,0,0,0,0,0,0,0,0,0,0,0,0.0222,0.0223,0.0246,0.0239,0.0239,0.0232,0.0231,0.0231,0.022,0.022,0.022,0.022,0.0197,0.0197,0.0196,0.0192,0,0,0.0193,0.0193,0,0,0,0,0,0,0,0,0.0223,0.0223,0.024,0.024,0.0239,0.0228,0.0214,0.0218,0.022,0.0227,0.022,0.022,0.0207,0.0205,0.0202,0.0191,0.019,0.0193,0.0193,0.0192,0.0192,0,0,0,0,0,0,0,0.0223,0.0224,0.024,0.024,0.0239,0.0222,0.0222,0.0215,0.0217,0.0226,0.0226,0.0225,0.0206,0.0203,0.0202,0.019,0.0193,0.0192,0.0192,0.0192,0.018,0.018,0,0,0,0,0,0,0.0228,0.0224,0.0241,0.024,0.0231,0.0223,0.0223,0.0231,0.0217,0.0215,0.0225,0.0224,0.0205,0.0203,0.0201,0.0213,0.0192,0.0191,0.0191,0.018,0.018,0.018,0,0,0,0,0,0,0.0228,0.023,0.0241,0.0231,0.0231,0.0224,0.0233,0.0231,0.0233,0.0216,0.0214,0.0229,0.0204,0.0202,0.0202,0.0211,0.0191,0.019,0.018,0.018,0.018,0.0226,0,0,0,0,0,0,0.0227,0.023,0.0238,0.0232,0.0232,0.0246,0.0233,0.0231,0.0233,0.0232,0.0219,0.0217,0.0204,0.0204,0.0202,0.021,0.019,0.0179,0.018,0.018,0.0224,0.0228,0.0231,0,0,0,0,0,0.0226,0.0242,0.0239,0.0241,0.0244,0.0247,0.0246,0.0239,0.0233,0.0239,0.023,0.0218,0.0204,0.0204,0.0201,0.0209,0.0179,0.018,0.018,0.0223,0.0227,0.0231,0,0,0,0,0,0,0.0235,0.0242,0.0239,0.0255,0.0254,0.0245,0.025,0.0244,0.0241,0.0241,0.0224,0.0221,0.0222,0.0209,0.0208,0.0205,0.0188,0.0188,0.0221,0.0225,0.0229,0.0241,0.0189,0,0,0,0,0,0.0241,0.0255,0.0253,0.0266,0.0268,0.0259,0.0259,0.0255,0.0251,0.025,0.024,0.0229,0.0221,0.0219,0.0208,0.0211,0.0187,0.0212,0.0215,0.0218,0.0225,0.0194,0.0196,0.0182,0.0182,0.0182,0,0,0.0247,0.0252,0.026,0.0269,0.0266,0.0279,0.026,0.0265,0.0275,0.0247,0.0258,0.0241,0.0223,0.0225,0.0224,0.0217,0.0209,0.0219,0.0222,0.0227,0.0195,0.0196,0.0197,0.0182,0.0182,0.0182,0,0,0.0268,0.0273,0.0291,0.0295,0.0297,0.0294,0.0299,0.0295,0.0293,0.0298,0.028,0.027,0.0261,0.025,0.0242,0.0257,0.0227,0.0252,0.0282,0.0252,0.0253,0.0253,0.0224,0.0221,0.0256,0.0256,0.0256,0,0.0275,0.0301,0.0295,0.0313,0.0323,0.0306,0.0328,0.0323,0.0319,0.0322,0.0308,0.029,0.0273,0.0274,0.0278,0.0266,0.0243,0.027,0.0257,0.0257,0.0257,0.0226,0.0223,0.0258,0.0258,0.0257,0.0257,0,0.0309,0.033,0.0341,0.0362,0.0369,0.0385,0.0381,0.0383,0.0375,0.0371,0.0368,0.0339,0.033,0.0318,0.0304,0.0298,0.028,0.0264,0.0249,0.0261,0.0227,0.0223,0.0261,0.026,0.026,0.0259,0,0,0.0328,0.0361,0.0366,0.0387,0.0399,0.0411,0.0423,0.0434,0.0451,0.0428,0.044,0.0414,0.0395,0.0385,0.0359,0.0331,0.0306,0.0303,0.03,0.0277,0.0239,0.0219,0.0212,0.0287,0.0286,0.0286,0.0216,0,0.0358,0.0406,0.0412,0.0458,0.0484,0.0476,0.0495,0.0499,0.0495,0.05,0.0459,0.0462,0.0422,0.0419,0.0385,0.0329,0.0297,0.0327,0.0227,0.0225,0.0208,0.0208,0.0285,0.0212,0.0211,0.0211,0.021,0,0.0391,0.0421,0.0473,0.0516,0.0527,0.055,0.0579,0.0595,0.059,0.0586,0.0569,0.0537,0.05,0.046,0.0367,0.0388,0.0321,0.0268,0.0264,0.0228,0.0197,0.0197,0.0202,0.0203,0.0203,0.0204,0.0204,0,0.0412,0.0464,0.051,0.0525,0.0567,0.0588,0.0611,0.0623,0.0651,0.0644,0.0655,0.0599,0.0578,0.0485,0.0375,0.0372,0.0262,0.0242,0.0158,0.0156,0.0175,0.0175,0.0172,0.0172,0.0172,0.0172,0.0172,0,0.0443,0.0482,0.0528,0.0555,0.0616,0.0629,0.0691,0.0699,0.0723,0.0761,0.0707,0.0708,0.0583,0.0503,0.0393,0.0264,0.0273,0.0164,0.0137,0.0195,0.0198,0.0171,0.0172,0.0169,0.017,0.017,0.0171,0,0.046,0.0489,0.055,0.0606,0.063,0.0675,0.0753,0.0796,0.0809,0.0849,0.0849,0.0792,0.0688,0.055,0.0398,0.0297,0.0169,0.0119,0.0195,0.0173,0.0078,0.0082,0.0022,0.0021,0.0019,0.0019,0.0018,0,0.0473,0.0505,0.0589,0.0634,0.0665,0.0738,0.0792,0.0836,0.0882,0.0899,0.0914,0.0834,0.0772,0.0547,0.0397,0.0181,0.0146,0.0074,0.0071,0.0083,0.0063,0.0069,0.0074,0.0016,0.0016,0.0015,0.0015,0,0.0497,0.0528,0.0578,0.0671,0.074,0.0823,0.0898,0.0936,0.098,0.0991,0.0965,0.0849,0.0729,0.055,0.0382,0.0226,0.0117,0.0062,0.0063,0.0059,0.0075,0.0057,0.0064,0.0011,0.0012,0.0012,0.0013,0,0.0514,0.0552,0.062,0.0702,0.0793,0.0875,0.0919,0.0967,0.1011,0.1016,0.1005,0.0875,0.0804,0.0574,0.042,0.0263,0.0218,0.0156,0.0151,0.0153,0.0206,0.0247,0.0214,0,0,0,0,0,0.0527,0.057,0.0646,0.0737,0.0829,0.0885,0.0975,0.101,0.1046,0.1032,0.102,0.0905,0.068,0.0592,0.0431,0.0389,0.0185,0.0192,0.0109,-0.0009,-0.0005,0.0032,0,0,0,0,0,0,0.0535,0.0603,0.0641,0.0751,0.0819,0.0923,0.0985,0.1013,0.1007,0.1013,0.0903,0.0848,0.0638,0.077,0.0423,0.0377,0.0297,0.0094,0.0089,-0.0012,-0.0008,-0.0004,0.0035,0,0,0,0,0]}]]